User: anonymous   Login
Location: Unspecified
(0.0000°N, 0.0000°E)
Time: 21:17:45
(UTC+02:00)
Language:

Cosmos 1437 - Orbit

View from above orbital plane
View from above orbital plane
View from above satellite
View from above satellite

Ground track
Ground track

The orbit data is extracted from the following two-line orbital elements,

1 13770U 83003A   16124.93235443  .00010114  00000-0  20528-3 0  9996
2 13770  81.1579 289.1035 0006962 255.8631 104.1840 15.46183118823179
Epoch (UTC): 03 May 2016 22:22:35
Eccentricity: 0.0006962
inclination: 81.1579°
perigee height: 423 km
apogee height: 432 km
right ascension of ascending node: 289.1035°
argument of perigee: 255.8631°
revolutions per day: 15.46183118
mean anomaly at epoch: 104.1840°
orbit number at epoch: 82317

The dashed part of the orbit path shows where the satellite is in the earth's shadow,  

DLR